[[{"header":{"parameterUnit":"m.s-1","parameterCategory":1,"la1":30.2991,"la2":30.254,"lo1":-89.0895,"lo2":-89.0444,"dy":0.0017,"dx":0.0017,"nx":28,"ny":28,"refTime":"2024-04-26T03:00:00:Z","depth":0,"parameterNumber":2,"parameterNumberName":"U-component_of_WINDS"},"data":[0,0,0,0,0,0,0,0,0,0,0,0,0,0,0,0,0,0,0,0,0,0,0,0,0,0,0,0,0,0,0,0,0,0,0,0,0,0,0,0,0,0,0,0,0,0,0,0,0,0,0,0,0,0,0,0,0,0,-3.9004,-3.9005,0,-3.9059,-3.906,-3.906,-3.9024,-3.9023,-3.9021,-3.902,-3.9077,-3.908,-3.9083,0,0,0,0,0,0,0,0,0,0,0,0,0,-3.8869,-3.8872,-3.9004,-3.9005,-3.9005,-3.9059,-3.906,-3.906,-3.9025,-3.9023,-3.9021,-3.9019,-3.9076,-3.908,-3.9084,0,0,0,0,0,0,0,0,0,0,0,0,0,-3.8926,-3.8872,-3.9004,-3.8994,-3.8994,-3.9059,-3.906,-3.9061,-3.9025,-3.9023,-3.902,-3.9018,-3.9075,-3.908,-3.9084,-3.9163,0,0,-3.9098,-3.91,0,0,0,0,0,0,0,0,-3.8923,-3.8931,-3.8995,-3.8995,-3.8994,-3.9032,-3.9033,-3.9095,-3.9026,-3.9013,-3.9019,-3.9017,-3.9064,-3.907,-3.9086,-3.9165,-3.9168,-3.9099,-3.9101,-3.9103,-3.9105,0,0,0,0,0,0,0,-3.8919,-3.8929,-3.9026,-3.8996,-3.8996,-3.8987,-3.8992,-3.9045,-3.9052,-3.9014,-3.9012,-3.9019,-3.9064,-3.9081,-3.9087,-3.9169,-3.9099,-3.9103,-3.9106,-3.9107,-3.9315,-3.9318,0,0,0,0,0,0,-3.8916,-3.8926,-3.9024,-3.9027,-3.8952,-3.8992,-3.8998,-3.9023,-3.9051,-3.9053,-3.9021,-3.9017,-3.9075,-3.9081,-3.9089,-3.9182,-3.9103,-3.9108,-3.911,-3.9312,-3.9316,-3.9319,0,0,0,0,0,0,-3.8913,-3.8925,-3.9022,-3.8976,-3.8987,-3.8996,-3.9025,-3.9025,-3.9042,-3.9056,-3.9058,-3.9037,-3.9073,-3.9082,-3.9144,-3.9183,-3.911,-3.9114,-3.9309,-3.9313,-3.9317,-3.9369,0,0,0,0,0,0,-3.8909,-3.8924,-3.8954,-3.8977,-3.899,-3.9076,-3.9027,-3.9028,-3.905,-3.9046,-3.9072,-3.9074,-3.9072,-3.9138,-3.9149,-3.9188,-3.9118,-3.9306,-3.9311,-3.9316,-3.9364,-3.9375,-3.9384,0,0,0,0,0,-3.8905,-3.8967,-3.8955,-3.8967,-3.9027,-3.9079,-3.9086,-3.9082,-3.9054,-3.9084,-3.9093,-3.9073,-3.9177,-3.9144,-3.9157,-3.9198,-3.9303,-3.9309,-3.9315,-3.936,-3.9373,-3.9383,0,0,0,0,0,0,-3.8949,-3.8969,-3.8957,-3.9029,-3.9052,-3.9072,-3.911,-3.9096,-3.9128,-3.9123,-3.9116,-3.9122,-3.9187,-3.9199,-3.9162,-3.9275,-3.9236,-3.9245,-3.9265,-3.9278,-3.9287,-3.9283,-3.9122,0,0,0,0,0,-3.8967,-3.9006,-3.9022,-3.9084,-3.9096,-3.9101,-3.9124,-3.9118,-3.9142,-3.9152,-3.9166,-3.919,-3.9228,-3.9254,-3.929,-3.9366,-3.9371,-3.9401,-3.941,-3.9418,-3.9426,-3.9467,-3.948,-3.9339,-3.9339,-3.9339,0,0,-3.9004,-3.902,-3.9046,-3.9093,-3.9111,-3.9152,-3.911,-3.9156,-3.9186,-3.9159,-3.9218,-3.9229,-3.9256,-3.9326,-3.9357,-3.9338,-3.9466,-3.9426,-3.9432,-3.9436,-3.9474,-3.9488,-3.9499,-3.9343,-3.9342,-3.9342,0,0,-3.9094,-3.911,-3.9163,-3.9181,-3.9208,-3.9211,-3.9223,-3.9246,-3.9252,-3.9311,-3.9292,-3.9329,-3.9395,-3.9414,-3.9433,-3.953,-3.9513,-3.9542,-3.9593,-3.9633,-3.9644,-3.9654,-3.9688,-3.97,-3.955,-3.955,-3.955,0,-3.9137,-3.9198,-3.9192,-3.9239,-3.926,-3.9237,-3.929,-3.9308,-3.9346,-3.9361,-3.9339,-3.9421,-3.9438,-3.9511,-3.9535,-3.9551,-3.9565,-3.9539,-3.9643,-3.9653,-3.9662,-3.9694,-3.9707,-3.9553,-3.9553,-3.9553,-3.9552,0,-3.925,-3.9292,-3.9332,-3.9368,-3.9394,-3.9444,-3.9445,-3.9472,-3.9464,-3.947,-3.953,-3.955,-3.9589,-3.9606,-3.9599,-3.9679,-3.9665,-3.9643,-3.9603,-3.9678,-3.9709,-3.9721,-3.9558,-3.9557,-3.9556,-3.9555,0,0,-3.9368,-3.94,-3.9414,-3.943,-3.9458,-3.9491,-3.954,-3.9578,-3.9601,-3.9628,-3.9668,-3.9725,-3.9704,-3.9726,-3.9721,-3.9756,-3.9831,-3.9729,-3.973,-3.9747,-3.9919,-3.9935,-3.9949,-3.982,-3.9822,-3.9824,-3.9916,0,-3.9459,-3.9543,-3.9539,-3.9619,-3.9658,-3.9636,-3.9679,-3.9701,-3.9707,-3.9742,-3.9749,-3.9789,-3.9759,-3.9772,-3.9805,-3.9814,-3.9865,-3.9808,-3.9858,-3.986,-3.9851,-3.9965,-3.9982,-4.0068,-3.9928,-3.993,-3.9931,0,-3.9576,-3.9606,-3.9689,-3.971,-3.9726,-3.9765,-3.9799,-3.9832,-3.9856,-3.9859,-3.9882,-3.9872,-3.9922,-3.9881,-3.9949,-3.991,-3.9931,-3.9938,-3.9942,-3.9946,-3.99,-3.9971,-4.0095,-4.0108,-3.995,-3.9949,-3.9947,0,-3.9653,-3.9714,-3.9772,-3.9786,-3.9813,-3.984,-3.9852,-3.9874,-3.9897,-3.9927,-3.9942,-3.9978,-3.9997,-4.0025,-4.0025,-3.9995,-4.0094,-4.0053,-4.0097,-4.0097,-4.0118,-4.0117,-4.0246,-4.0133,-4.0133,-4.0132,-4.0132,0,-3.9754,-3.9806,-3.9807,-3.9842,-3.9899,-3.9894,-3.9951,-3.996,-3.998,-4.0017,-4.0001,-4.0036,-4.0034,-4.007,-4.007,-4.0126,-4.0135,-4.0138,-4.0138,-4.014,-4.0139,-4.0152,-4.0146,-4.0136,-4.0135,-4.0134,-4.0134,0,-3.985,-3.9853,-3.9914,-3.9934,-3.994,-3.9981,-3.9998,-4.0032,-4.0037,-4.0084,-4.0095,-4.0103,-4.0144,-4.0146,-4.0194,-4.0194,-4.0262,-4.0256,-4.0254,-4.0252,-4.0296,-4.0291,-4.0438,-4.0456,-4.0331,-4.0332,-4.0333,0,-3.9914,-3.9953,-3.9977,-4.0,-4.0014,-4.0052,-4.0075,-4.0072,-4.0096,-4.0127,-4.0157,-4.0196,-4.0227,-4.0294,-4.0304,-4.0341,-4.0334,-4.0383,-4.034,-4.034,-4.0334,-4.0332,-4.0335,-4.0391,-4.0393,-4.0394,-4.0395,0,-4.0028,-4.0027,-4.006,-4.0094,-4.0122,-4.0148,-4.0173,-4.0193,-4.0193,-4.0221,-4.0263,-4.0287,-4.0335,-4.0375,-4.041,-4.0423,-4.0409,-4.0408,-4.042,-4.0422,-4.0419,-4.0421,-4.0276,-4.0405,-4.0404,-4.0403,-4.0403,-4.0402,-4.0109,-4.0143,-4.0164,-4.0202,-4.022,-4.0243,-4.0276,-4.0284,-4.0319,-4.0357,-4.0353,-4.0399,-4.0422,-4.0468,-4.0484,-4.052,-4.0504,-4.0521,-4.0525,-4.053,-4.0534,-4.0414,-4.0527,-4.0526,-4.0526,-4.0526,-4.0526,0,-4.0221,-4.0234,-4.0268,-4.0303,-4.0333,-4.0316,-4.0343,-4.0369,-4.0409,-4.0432,-4.0462,-4.051,-4.0548,-4.0561,-4.0598,-4.0624,-4.0619,-4.0634,-4.0632,-4.0635,-4.0547,-4.0532,-4.0638,-4.0638,-4.0638,-4.0638,-4.0638,-4.0638,-4.0283,-4.0338,-4.034,-4.0404,-4.0416,-4.0461,-4.0477,-4.0499,-4.0516,-4.057,-4.0601,-4.0609,-4.0628,-4.0666,-4.07,-4.0703,-4.0717,-4.0735,-4.0735,-4.0653,-4.0641,-4.0631,-4.0617,-4.0738,-4.0739,-4.082,-4.0821,-4.0822]},{"header":{"parameterUnit":"m.s-1","parameterCategory":1,"la1":30.2991,"la2":30.254,"lo1":-89.0895,"lo2":-89.0444,"dy":0.0017,"dx":0.0017,"nx":28,"ny":28,"refTime":"2024-04-26T03:00:00:Z","depth":0,"parameterNumber":3,"parameterNumberName":"V-component_of_WINDS"},"data":[0,0,0,0,0,0,0,0,0,0,0,0,0,0,0,0,0,0,0,0,0,0,0,0,0,0,0,0,0,0,0,0,0,0,0,0,0,0,0,0,0,0,0,0,0,0,0,0,0,0,0,0,0,0,0,0,0,0,4.7943,4.7943,0,4.7972,4.7972,4.7972,4.7938,4.7937,4.7936,4.7935,4.796,4.7962,4.7964,0,0,0,0,0,0,0,0,0,0,0,0,0,4.7855,4.7856,4.7943,4.7943,4.7944,4.7972,4.7972,4.7972,4.7939,4.7937,4.7936,4.7934,4.796,4.7962,4.7964,0,0,0,0,0,0,0,0,0,0,0,0,0,4.7889,4.7857,4.7943,4.793,4.7929,4.7971,4.7972,4.7972,4.7939,4.7937,4.7935,4.7933,4.7959,4.7962,4.7964,4.8019,0,0,4.7973,4.7974,0,0,0,0,0,0,0,0,4.7887,4.7892,4.7932,4.7931,4.793,4.795,4.795,4.7988,4.7939,4.7935,4.7935,4.7933,4.7958,4.7961,4.797,4.802,4.8021,4.7973,4.7975,4.7976,4.7977,0,0,0,0,0,0,0,4.7885,4.7891,4.7954,4.7932,4.7931,4.7922,4.7925,4.7957,4.7957,4.7935,4.7933,4.7937,4.7957,4.7968,4.797,4.8022,4.7973,4.7976,4.7977,4.7978,4.8118,4.812,0,0,0,0,0,0,4.7884,4.7889,4.7953,4.7955,4.7904,4.7925,4.7928,4.7945,4.7956,4.7956,4.7939,4.7935,4.7964,4.7967,4.7971,4.8036,4.7976,4.7979,4.798,4.8116,4.8118,4.812,0,0,0,0,0,0,4.7883,4.7891,4.7952,4.7921,4.7929,4.7928,4.7948,4.7947,4.7957,4.7959,4.7958,4.795,4.7962,4.7967,4.8008,4.8036,4.798,4.7982,4.8113,4.8116,4.8119,4.8166,0,0,0,0,0,0,4.788,4.789,4.7912,4.7922,4.793,4.7989,4.795,4.7949,4.7962,4.7958,4.7969,4.7969,4.7961,4.8004,4.801,4.8039,4.7985,4.8111,4.8115,4.8118,4.8162,4.817,4.8177,0,0,0,0,0,4.7877,4.7923,4.7913,4.7921,4.7958,4.7991,4.7995,4.7987,4.7965,4.7986,4.7987,4.7968,4.8032,4.8008,4.8015,4.8045,4.8109,4.8113,4.8118,4.8158,4.8169,4.8177,0,0,0,0,0,0,4.7914,4.7924,4.7913,4.7964,4.7977,4.7985,4.8012,4.7998,4.8017,4.8012,4.8,4.8002,4.8045,4.8049,4.8022,4.8099,4.8067,4.8073,4.8095,4.8105,4.8112,4.811,4.7987,0,0,0,0,0,4.7929,4.7957,4.7963,4.8007,4.8014,4.8012,4.8026,4.8019,4.8031,4.8036,4.804,4.8052,4.8074,4.809,4.811,4.8162,4.8164,4.8186,4.8194,4.82,4.8206,4.8233,4.8244,4.8135,4.8135,4.8135,0,0,4.7958,4.7967,4.7985,4.8015,4.8024,4.8052,4.8017,4.8047,4.8067,4.804,4.8079,4.8082,4.8094,4.8141,4.8161,4.8145,4.8236,4.8206,4.8211,4.8213,4.8239,4.8249,4.8259,4.8138,4.8138,4.8137,0,0,4.8026,4.8036,4.8074,4.8084,4.8099,4.8097,4.8107,4.8117,4.8118,4.8157,4.8138,4.816,4.82,4.8209,4.8219,4.8291,4.8274,4.8298,4.8339,4.8366,4.8374,4.8382,4.8407,4.8417,4.8304,4.8304,4.8304,0,4.8061,4.8103,4.8095,4.8127,4.814,4.8118,4.8156,4.8166,4.8186,4.8195,4.8177,4.8227,4.8233,4.8281,4.8299,4.8308,4.8317,4.8297,4.8374,4.8381,4.8388,4.8412,4.8422,4.8306,4.8306,4.8306,4.8306,0,4.8145,4.8174,4.8203,4.8225,4.8241,4.8276,4.8272,4.8289,4.828,4.828,4.8319,4.8326,4.8349,4.8359,4.835,4.8406,4.8396,4.8376,4.8344,4.8402,4.8424,4.8433,4.831,4.8309,4.8309,4.8308,0,0,4.8237,4.8255,4.8265,4.8275,4.829,4.8312,4.8345,4.8368,4.8383,4.8397,4.8425,4.8459,4.8441,4.8452,4.8444,4.8467,4.8524,4.8445,4.8445,4.8459,4.8586,4.8601,4.8612,4.8513,4.8514,4.8516,4.8585,0,4.8306,4.8366,4.8359,4.8415,4.8442,4.8421,4.845,4.8461,4.8462,4.8484,4.8484,4.8508,4.8482,4.8489,4.8512,4.8512,4.8549,4.8507,4.8537,4.8538,4.8535,4.8624,4.864,4.8704,4.8593,4.8595,4.8596,0,4.8394,4.8414,4.8473,4.8484,4.8495,4.8521,4.8542,4.8563,4.8575,4.8574,4.8587,4.8574,4.8606,4.8573,4.8617,4.8589,4.8601,4.8603,4.8605,4.8608,4.8571,4.8629,4.8725,4.8735,4.861,4.8609,4.8608,0,4.8456,4.8497,4.8538,4.8547,4.856,4.8579,4.8585,4.8596,4.861,4.8627,4.8636,4.8656,4.8668,4.8683,4.8676,4.8653,4.8721,4.8687,4.872,4.8721,4.8736,4.8735,4.8836,4.8743,4.8743,4.8743,4.8743,0,4.8534,4.8571,4.8566,4.8591,4.8632,4.8623,4.8663,4.8666,4.8676,4.8701,4.8683,4.8706,4.8695,4.8717,4.8712,4.8749,4.8754,4.8753,4.8751,4.8755,4.8755,4.8763,4.8758,4.8745,4.8745,4.8744,4.8744,0,4.861,4.8608,4.8652,4.8661,4.8665,4.8694,4.8702,4.8725,4.8724,4.8755,4.8762,4.876,4.8785,4.878,4.8807,4.8803,4.885,4.8842,4.8846,4.8845,4.8878,4.8875,4.8987,4.9001,4.8899,4.89,4.8901,0,4.866,4.8689,4.8701,4.8718,4.8726,4.8751,4.8766,4.8758,4.8773,4.879,4.881,4.8834,4.8853,4.8894,4.8894,4.8915,4.8907,4.8945,4.891,4.8913,4.8908,4.8907,4.891,4.8952,4.8953,4.8954,4.8955,0,4.8749,4.8747,4.8769,4.8792,4.881,4.8827,4.8842,4.8856,4.8849,4.8867,4.8893,4.8908,4.8936,4.896,4.8979,4.8983,4.8968,4.8966,4.8975,4.8979,4.8981,4.8981,4.8866,4.8964,4.8963,4.8962,4.8962,4.8961,4.8814,4.8838,4.8851,4.8877,4.8888,4.8902,4.8925,4.8927,4.8949,4.8972,4.8966,4.8995,4.9006,4.903,4.9037,4.906,4.9045,4.9058,4.9061,4.9065,4.9069,4.8977,4.9063,4.9063,4.9063,4.9062,4.9062,0,4.8902,4.891,4.8933,4.8956,4.8976,4.8961,4.8976,4.8994,4.9021,4.9033,4.9052,4.9081,4.9104,4.9107,4.9128,4.9145,4.9139,4.9151,4.915,4.9151,4.908,4.9071,4.9156,4.9156,4.9156,4.9156,4.9156,4.9156,4.895,4.8991,4.899,4.9035,4.9042,4.9072,4.9083,4.9096,4.9105,4.914,4.9159,4.9161,4.9169,4.9191,4.9211,4.921,4.9219,4.9234,4.9232,4.9166,4.9156,4.9147,4.9138,4.9236,4.9236,4.9301,4.9301,4.9302]}]]